Location: Byszew
(52.1813°N, 19.2693°E)
Time: 09:26:17
(UTC+00:00)

AIST 2D - Pass Details

Date: 28 June 2022
Orbit: 433 x 443 km, 97.0° (Epoch: 13 August)

Event Time Altitude Azimuth Distance (km) Brightness Sun altitude
Rises 20:57:57 0° 7° (N) 2,427 ? -10.9°
Reaches altitude 10° 21:00:02 10° 0° (N) 1,554 ? -11.1°
Maximum altitude 21:03:10 40° 289° (WNW) 655 ? -11.3°
Drops below altitude 10° 21:06:12 11° 219° (SW) 1,502 ? -11.5°
Enters shadow 21:07:25 - 214° (SW) 2,008 ? -11.5°
